This is the latest recevied weather packets stored in our database for station/object W4FXD. If no packets are shown the sender has not sent any weather packets the latest 10 day(s).
| Time | Temp. | Humidity | Pressure | Rain* | Wind** | Luminosity | Snow |
|---|---|---|---|---|---|---|---|
| 1778006333 | 22.78° C | 50% | 1013.1 hPa | 0 mm | - | 420 W/m² | - |
| 1778006029 | 22.78° C | 49% | 1013.4 hPa | 0 mm | - | 394 W/m² | - |
| 1778005726 | 22.78° C | 50% | 1013.4 hPa | 0 mm | - | 426 W/m² | - |
| 1778005423 | 22.78° C | 51% | 1013.7 hPa | 0 mm | - | 544 W/m² | - |
| 1778005120 | 22.22° C | 50% | 1013.6 hPa | 0 mm | - | 440 W/m² | - |
| 1778004817 | 22.78° C | 51% | 1013.7 hPa | 0 mm | - | 433 W/m² | - |
| 1778004513 | 22.78° C | 50% | 1013.8 hPa | 0 mm | - | 436 W/m² | - |
| 1778004210 | 22.78° C | 50% | 1013.9 hPa | 0 mm | - | 492 W/m² | - |
| 1778003906 | 22.78° C | 49% | 1014.3 hPa | 0 mm | - | 540 W/m² | - |
| 1778003603 | 22.22° C | 49% | 1014.3 hPa | 0 mm | - | 585 W/m² | - |
| 1778003299 | 22.22° C | 49% | 1014.4 hPa | 0 mm | - | 385 W/m² | - |
| 1778002997 | 22.22° C | 51% | 1014.2 hPa | 0 mm | - | 505 W/m² | - |
| 1778002693 | 22.22° C | 52% | 1014.3 hPa | 0 mm | - | 302 W/m² | - |
| 1778002389 | 22.22° C | 52% | 1014.4 hPa | 0 mm | - | 462 W/m² | - |
| 1778002087 | 22.22° C | 53% | 1014.3 hPa | 0 mm | - | 371 W/m² | - |
| 1778001784 | 21.67° C | 54% | 1014.4 hPa | 0 mm | - | 332 W/m² | - |
| 1778001478 | 21.67° C | 54% | 1014.5 hPa | 0 mm | - | 281 W/m² | - |
| 1778001175 | 21.67° C | 54% | 1014.6 hPa | 0 mm | - | 462 W/m² | - |
| 1778000872 | 21.67° C | 53% | 1014.5 hPa | 0 mm | - | 310 W/m² | - |
| 1778000569 | 21.67° C | 53% | 1014.8 hPa | 0 mm | - | 361 W/m² | - |
| 1777999960 | 22.22° C | 55% | 1014.8 hPa | 0 mm | - | 427 W/m² | - |
| 1777999656 | 21.67° C | 56% | 1015.1 hPa | 0 mm | - | 299 W/m² | - |
| 1777999353 | 21.67° C | 61% | 1014.9 hPa | 0 mm | - | 452 W/m² | - |
| 1777999051 | 21.67° C | 60% | 1015.1 hPa | 0 mm | - | 331 W/m² | - |
| 1777998750 | 21.11° C | 61% | 1015.2 hPa | 0 mm | - | 391 W/m² | - |
* Rain latest hour (hover to see other rain measurements)
** Current wind speed in m/s (hover to see current wind gust speed)